Content
SEND FEEDBACK

Daily
Averages
Monthly
Summary
United States of America

RANCHO SAN DIEGO, CALIFORNIA


Home > North America > United States > California
Elevation: 540 feet     Latitude: 32 47N     Longitude: 116 56W

WEATHER
 
SELECT A DAY
Number of Records: 101,495;   Date Range: 1/1/95 - 4/17/14
 
SHARE

PRINT THIS DATA

[ ← Previous Day ]
WEATHER ALMANAC - FEBRUARY 13, 2013
[ Next Day → ]
[ °C ]   °F
Weather ElementAverageHighLow
Temperature41.7 °F64.4 °F (3:47 pm)33.8 °F (4:55 am)
Dewpoint39.9 °F46.4 °F (8:15 pm)32 °F (7:47 pm)
Humidity95.6 %100 % (12:35 am)40 % (3:47 pm)
Barometer30.22 in30.27 in (12:35 am)30.15 in (3:47 pm)
Wind Speed1.6 mph10.4 mph (3:47 pm)
Weather ElementAverage
Visibility10.3 mi
Wind DirectionESE (106.7 °)

Weather ElementTotal
Precipitation---
Heating Degree Days15.9 (Base 65)
Averaged from 30 records on February 13, 2013
WEATHER CONDITIONS BREAKOUT
WIND DIRECTION BREAKOUT
WEATHER BY HOUR - FEBRUARY 13, 2013
[ °C ]   °F
Local TimeTemperatureDewpointHumidityBarometerVisibilityWind DirectionWind SpeedGust SpeedPrecipitationEventsConditions
12:35 AM37.4 °F37.4 °F100 %30.27 in10.0 miWest (280°)4.6 mphClear
12:55 AM37.4 °F37.4 °F100 %30.27 in10.0 miCalmClear
1:15 AM37.4 °F37.4 °F100 %30.27 in10.0 miCalmClear
1:35 AM37.4 °F37.4 °F100 %30.26 in10.0 miCalmClear
1:55 AM37.4 °F37.4 °F100 %30.26 in10.0 miCalmClear
2:15 AM35.6 °F35.6 °F100 %30.26 in10.0 miNW (310°)3.5 mphClear
2:35 AM35.6 °F35.6 °F100 %30.26 in10.0 miWNW (290°)4.6 mphClear
2:55 AM35.6 °F35.6 °F100 %30.26 in10.0 miCalmClear
3:15 AM35.6 °F35.6 °F100 %30.25 in10.0 miCalmClear
3:35 AM35.6 °F35.6 °F100 %30.25 in10.0 miCalmClear
3:55 AM35.6 °F35.6 °F100 %30.26 in10.0 miCalmClear
4:15 AM35.6 °F35.6 °F100 %30.26 in10.0 miCalmClear
4:35 AM35.6 °F35.6 °F100 %30.26 in10.0 miCalmClear
4:55 AM33.8 °F33.8 °F100 %30.26 in10.0 miCalmClear
5:15 AM33.8 °F33.8 °F100 %30.26 in10.0 miWest (280°)3.5 mphClear
3:47 PM64.4 °F39.2 °F40 %30.15 in25.0 miWest (280°)10.4 mphClear
7:47 PM55.4 °F32.0 °F41 %30.17 in10.0 miCalmClear
8:15 PM48.2 °F46.4 °F93 %30.19 in10.0 miNW (310°)3.5 mphClear
8:35 PM48.2 °F46.4 °F93 %30.18 in10.0 miWNW (290°)4.6 mphClear
8:47 PM46.4 °F46.4 °F100 %30.18 in12.0 miCalmClear
8:55 PM46.4 °F46.4 °F100 %30.18 in10.0 miWNW (300°)3.5 mphClear
9:15 PM46.4 °F46.4 °F100 %30.19 in10.0 miWest (280°)3.5 mphClear
9:35 PM46.4 °F46.4 °F100 %30.18 in9.0 miCalmClear
9:55 PM46.4 °F46.4 °F100 %30.19 in9.0 miCalmClear
10:15 PM44.6 °F44.6 °F100 %30.19 in10.0 miCalmClear
10:35 PM44.6 °F44.6 °F100 %30.19 in10.0 miCalmClear
10:55 PM44.6 °F44.6 °F100 %30.19 in9.0 miWNW (290°)3.5 mphClear
11:15 PM42.8 °F42.8 °F100 %30.20 in8.0 miCalmClear
11:35 PM42.8 °F42.8 °F100 %30.19 in9.0 miCalmClear
11:55 PM42.8 °F42.8 °F100 %30.19 in8.0 miWNW (290°)3.5 mphClear
Hourly data recorded from KSEE, located 3.72 miles away from Rancho San Diego, California







STORIES FROM OUR PARTNERS